Weather History for Greenville, AL

Change the Weather History Date:

Tuesday, March 4, 2014

  Actual Average Record
Temperature  
Mean Temperature 38 °F -  
Max Temperature 42 °F 67 °F 84 °F (1955)
Min Temperature 33 °F 44 °F 18 °F (1943)
Degree Days  
Heating Degree Days 28    
Moisture  
Dew Point 35 °F    
Average Humidity 86    
Maximum Humidity 96    
Minimum Humidity 76    
Precipitation  
Precipitation 0.06 in - - ()
Sea Level Pressure  
Sea Level Pressure 30.12 in    
Wind  
Wind Speed 6 mph (NNE)    
Max Wind Speed 10 mph    
Max Gust Speed -    
Visibility 6 miles    
Events Rain    
Averages and records for this station are not official NWS values.
T = Trace of Precipitation, MM = Missing Value Source: NWS Daily Summary

Daily Weather History Graph

Daily Weather History Graph

Search for Another Location

Airport:

Trip Planner

Search our weather history database for the weather conditions in past years. The results will help you decide how hot, cold, wet, or windy it might be!

Date:

Astronomy

Mar. 04, 2014 Rise Set
Actual Time 6:10 AM CST 5:46 PM CST
Civil Twilight 5:45 AM CST 6:11 PM CST
Nautical Twilight 5:17 AM CST 6:39 PM CST
Astronomical Twilight 4:49 AM CST 7:07 PM CST
Moon 8:10 AM CST (3/4) 9:36 PM CST (3/4)
Length of Visible Light 12h 25m
Length of Day
11h 36m
Waxing Crescent, 15% of the Moon is Illuminated
Mar 4
Waxing Crescent
Mar 8
First Quarter
Mar 16
Full
Mar 23
Last Quarter
Mar 30
New

Hourly Weather History & Observations

Time (CST) Temp. Windchill Dew Point Humidity Pressure Visibility Wind Dir Wind Speed Gust Speed Precip Events Conditions
12:56 AM 34.0 °F 27.2 °F 28.0 °F 79% 30.15 in 10.0 mi NNE 8.1 mph - N/A   Overcast
1:56 AM 34.0 °F 26.6 °F 28.0 °F 79% 30.13 in 10.0 mi North 9.2 mph - N/A   Overcast
2:56 AM 34.0 °F 27.2 °F 28.0 °F 79% 30.13 in 10.0 mi NE 8.1 mph - N/A   Overcast
3:56 AM 34.0 °F 29.8 °F 28.0 °F 79% 30.13 in 10.0 mi North 4.6 mph - N/A   Overcast
4:56 AM 34.0 °F 28.0 °F 28.0 °F 79% 30.15 in 10.0 mi North 6.9 mph - N/A   Overcast
5:33 AM 33.8 °F 29.6 °F 28.4 °F 81% 30.14 in 9.0 mi NNE 4.6 mph - N/A   Overcast
5:56 AM 33.1 °F 26.1 °F 28.0 °F 82% 30.14 in 8.0 mi North 8.1 mph - N/A   Overcast
6:56 AM 33.1 °F 26.9 °F 28.9 °F 85% 30.15 in 5.0 mi NNE 6.9 mph - N/A   Overcast
7:22 AM 33.8 °F 26.4 °F 28.4 °F 81% 30.15 in 4.0 mi North 9.2 mph - N/A   Overcast
7:56 AM 34.0 °F 26.0 °F 30.0 °F 85% 30.15 in 5.0 mi NNE 10.4 mph - N/A   Overcast
8:56 AM 35.1 °F 28.6 °F 30.9 °F 85% 30.16 in 6.0 mi NNE 8.1 mph - N/A   Overcast
9:42 AM 37.4 °F 32.1 °F 32.0 °F 81% 30.16 in 7.0 mi NNE 6.9 mph - N/A   Overcast
9:56 AM 37.0 °F 34.5 °F 32.0 °F 82% 30.18 in 7.0 mi ENE 3.5 mph - N/A   Overcast
10:56 AM 37.9 °F 33.5 °F 33.1 °F 83% 30.17 in 9.0 mi North 5.8 mph - N/A   Overcast
11:56 AM 37.9 °F - 33.1 °F 83% 30.15 in 8.0 mi Calm Calm - N/A   Overcast
12:56 PM 39.0 °F - 34.0 °F 82% 30.15 in 8.0 mi Calm Calm - N/A   Overcast
1:56 PM 41.0 °F 37.1 °F 34.0 °F 76% 30.14 in 9.0 mi North 5.8 mph - N/A   Overcast
2:14 PM 39.2 °F 33.6 °F 33.8 °F 81% 30.14 in 9.0 mi North 8.1 mph - N/A   Overcast
2:56 PM 41.0 °F 37.1 °F 34.0 °F 76% 30.14 in 10.0 mi North 5.8 mph - 0.00 in   Overcast
3:56 PM 41.0 °F 37.1 °F 35.1 °F 79% 30.11 in 7.0 mi ENE 5.8 mph - 0.00 in Rain Light Rain
4:30 PM 41.0 °F 38.0 °F 37.4 °F 87% 30.09 in 5.0 mi ENE 4.6 mph - 0.02 in Rain Light Rain
4:56 PM 41.0 °F 39.0 °F 37.9 °F 89% 30.10 in 5.0 mi East 3.5 mph - 0.02 in   Overcast
5:07 PM 41.0 °F 39.0 °F 37.4 °F 87% 30.09 in 5.0 mi East 3.5 mph - N/A   Overcast
5:56 PM 41.0 °F 37.1 °F 37.9 °F 89% 30.08 in 6.0 mi East 5.8 mph - 0.01 in Rain Light Rain
6:18 PM 41.0 °F - 39.2 °F 93% 30.07 in 5.0 mi Calm Calm - 0.00 in Rain Light Rain
6:26 PM 41.0 °F 39.0 °F 39.2 °F 93% 30.07 in 6.0 mi NE 3.5 mph - 0.00 in Rain Light Rain
6:56 PM 41.0 °F - 39.0 °F 93% 30.10 in 5.0 mi Calm Calm - 0.00 in Rain Light Rain
7:56 PM 41.0 °F 39.0 °F 39.9 °F 96% 30.11 in 3.0 mi North 3.5 mph - 0.02 in Rain Light Rain
8:56 PM 42.1 °F 40.2 °F 39.9 °F 92% 30.13 in 4.0 mi North 3.5 mph - 0.00 in   Overcast
9:27 PM 41.0 °F 39.0 °F 39.2 °F 93% 30.13 in 5.0 mi North 3.5 mph - 0.00 in Rain Light Rain
9:34 PM 42.8 °F 41.1 °F 39.2 °F 87% 30.13 in 4.0 mi North 3.5 mph - 0.01 in Rain Light Rain
9:56 PM 41.0 °F - 39.9 °F 96% 30.13 in 4.0 mi Calm Calm - 0.01 in   Overcast
10:14 PM 41.0 °F - 39.2 °F 93% 30.11 in 3.0 mi Calm Calm - N/A   Overcast
10:27 PM 41.0 °F 38.0 °F 39.2 °F 93% 30.10 in 4.0 mi ENE 4.6 mph - N/A   Overcast
10:40 PM 41.0 °F 37.1 °F 39.2 °F 93% 30.11 in 4.0 mi NE 5.8 mph - N/A   Overcast
10:56 PM 42.1 °F 39.2 °F 39.9 °F 92% 30.11 in 4.0 mi NE 4.6 mph - 0.00 in Rain Light Rain
11:09 PM 42.8 °F 40.1 °F 39.2 °F 87% 30.09 in 4.0 mi ENE 4.6 mph - 0.00 in Rain Light Rain
11:45 PM 42.8 °F 39.3 °F 39.2 °F 87% 30.09 in 5.0 mi ENE 5.8 mph - 0.00 in   Overcast
11:56 PM 42.1 °F 39.2 °F 39.9 °F 92% 30.09 in 5.0 mi NNE 4.6 mph - 0.00 in   Overcast